Flag for USA

Past Weather in Atlantic City, New Jersey, USA — Yesterday and Last 2 Weeks

Now
58 °F

Fog.


Feels Like: 58 °F
Forecast: 73 / 63 °F
Wind: No wind

Location: Atlantic City International Airport
Current Time: Sep 25, 2020 at 8:37:39 am
Latest Report: Sep 25, 2020 at 7:58 am
Visibility: 3 mi
Pressure30.11 "Hg
Humidity: 100%
Dew Point: 58 °F
Location of Atlantic CityLocation

Past Weather in Atlantic City — Graph

°F

Atlantic City Temperature Yesterday

Maximum temperature yesterday: 72 °F (at 11:54 am)
Minimum temperature yesterday: 57 °F (at 3:54 am)
Average temperature yesterday: 65 °F

High & Low Weather Summary for the Past Weeks

 TemperatureHumidityPressure
High80 °F (Sep 23, 2:54 pm)100% (Sep 18, 3:02 am)30.53 "Hg (Sep 18, 3:02 am)
Low41 °F (Sep 21, 6:54 am)30% (Sep 22, 2:54 pm)29.87 "Hg (Sep 18, 5:54 am)
Average63 °F73%30.15 "Hg
* Reported Sep 11 12:54 pm — Sep 25 7:37 am, Atlantic City. Weather by CustomWeather, © 2020

Note: Actual official high and low records may vary slightly from our data, if they occured in-between our weather recording intervals... More about our weather records

Atlantic City Weather History for the Previous 24 Hours

Scroll right to see more
 ConditionsComfort  
Time TempWeatherWind HumidityBarometerVisibility
7:37 am
Fri, Sep 25
56 °FFog.No wind100%30.11 "Hg1 mi
7:15 am54 °FFog.No wind97%30.10 "Hg1 mi
6:57 am56 °FFog.No wind97%30.10 "Hg3 mi
6:37 am55 °FFog.No wind96%30.09 "Hg2 mi
6:22 am55 °FFog.No wind96%30.08 "Hg3 mi
5:54 am55 °FFog.No wind96%30.07 "Hg1 mi
5:41 am55 °FFog.No wind100%30.07 "Hg0 mi
5:32 am56 °FFog.No wind97%30.07 "Hg0 mi
4:54 am55 °FFog.No wind96%30.06 "Hg0 mi
4:40 am55 °FFog.No wind96%30.06 "Hg1 mi
4:37 am55 °FFog.No wind96%30.06 "Hg1 mi
4:16 am59 °FFog.No wind96%30.06 "Hg5 mi
4:01 am59 °FFog.No wind90%30.06 "Hg4 mi
2:54 am59 °FFog.No wind96%30.05 "Hg6 mi
1:54 am60 °FClear.No wind93%30.06 "Hg8 mi
12:54 am60 °FClear.3 mph93%30.05 "Hg10 mi
11:54 pm
Thu, Sep 24
59 °FClear.No wind93%30.04 "Hg8 mi
10:54 pm61 °FClear.No wind90%30.03 "Hg9 mi
9:54 pm63 °FClear.No wind90%30.04 "Hg10 mi
8:54 pm65 °FClear.No wind85%30.03 "Hg10 mi
7:54 pm65 °FClear.6 mph85%30.02 "Hg10 mi
6:54 pm66 °FClear.7 mph78%30.02 "Hg10 mi
5:54 pm68 °FSunny.3 mph73%30.00 "Hg10 mi
4:54 pm70 °FSunny.8 mph66%30.00 "Hg10 mi
3:54 pm70 °FSunny.6 mph71%29.99 "Hg10 mi
2:54 pm72 °FSunny.6 mph66%30.00 "Hg10 mi
1:54 pm71 °FSunny.3 mph61%30.00 "Hg10 mi
12:54 pm72 °FSunny.5 mph61%30.02 "Hg10 mi
11:54 am72 °FSunny.No wind61%30.02 "Hg10 mi
10:54 am71 °FSunny.3 mph63%30.02 "Hg10 mi
9:54 am70 °FSunny.3 mph64%30.02 "Hg10 mi
8:54 am64 °FSunny.No wind78%30.01 "Hg10 mi
Weather by CustomWeather, © 2020

See weather overview